| time (UTC) | temp F | wind direction | speed knots | gust knots | rain 1hr in | rain 24hr in | rain mn in | humidity % | barometer mb |
| 20260508044343 | 60 | 105 | 0.9 | 2.6 | 0.00 | 0.00 | 0.00 | 89 | 1015.8 |
| 20260508043839 | 60 | 107 | 0.0 | 0.9 | 0.00 | 0.00 | 0.00 | 89 | 1015.7 |
| 20260508043337 | 60 | 50 | 0.9 | 1.7 | 0.00 | 0.00 | 0.00 | 89 | 1015.6 |
| 20260508042833 | 60 | 180 | 1.7 | 2.6 | 0.00 | 0.00 | 0.00 | 89 | 1015.5 |
| 20260508042331 | 60 | 184 | 1.7 | 2.6 | 0.00 | 0.00 | 0.00 | 89 | 1015.7 |
| 20260508041827 | 60 | 167 | 1.7 | 1.7 | 0.00 | 0.00 | 0.00 | 89 | 1015.6 |
| 20260508041324 | 60 | 161 | 2.6 | 2.6 | 0.00 | 0.00 | 0.00 | 89 | 1015.5 |
| 20260508040820 | 59 | 174 | 1.7 | 1.7 | 0.00 | 0.00 | 0.00 | 89 | 1015.2 |
| 20260508040318 | 59 | 158 | 3.5 | 6.1 | 0.00 | 0.00 | 0.00 | 89 | 1015.2 |
| 20260508035815 | 59 | 129 | 0.9 | 5.2 | 0.00 | 0.00 | 0.00 | 89 | 1015.2 |
| 20260508035312 | 59 | 163 | 1.7 | 2.6 | 0.00 | 0.00 | 0.00 | 89 | 1015.1 |
| 20260508034809 | 59 | 192 | 1.7 | 6.1 | 0.00 | 0.00 | 0.00 | 89 | 1015.0 |
| 20260508034306 | 59 | 196 | 3.5 | 5.2 | 0.00 | 0.00 | 0.00 | 89 | 1015.1 |
| 20260508033803 | 59 | 164 | 2.6 | 3.5 | 0.00 | 0.00 | 0.00 | 89 | 1015.1 |
| 20260508033301 | 59 | 181 | 1.7 | 3.5 | 0.00 | 0.00 | 0.00 | 89 | 1014.9 |
| 20260508032758 | 59 | 186 | 2.6 | 3.5 | 0.00 | 0.00 | 0.00 | 89 | 1014.9 |
| 20260508032255 | 60 | 179 | 4.3 | 5.2 | 0.00 | 0.00 | 0.00 | 89 | 1014.7 |
| 20260508031752 | 60 | 181 | 2.6 | 3.5 | 0.00 | 0.00 | 0.00 | 89 | 1014.6 |
| 20260508031248 | 59 | 137 | 3.5 | 5.2 | 0.00 | 0.00 | 0.00 | 89 | 1014.6 |
| 20260508030745 | 60 | 188 | 2.6 | 5.2 | 0.00 | 0.00 | 0.00 | 88 | 1014.7 |
| 20260508030242 | 60 | 171 | 3.5 | 3.5 | 0.00 | 0.00 | 0.00 | 88 | 1014.6 |
| 20260508025739 | 60 | 165 | 4.3 | 5.2 | 0.00 | 0.00 | 0.00 | 88 | 1014.2 |
| 20260508025236 | 60 | 175 | 3.5 | 5.2 | 0.00 | 0.00 | 0.00 | 88 | 1014.4 |
| 20260508024732 | 60 | 172 | 3.5 | 5.2 | 0.00 | 0.00 | 0.00 | 87 | 1014.3 |
| 20260508024229 | 60 | 190 | 2.6 | 3.5 | 0.00 | 0.00 | 0.00 | 87 | 1014.3 |
| 20260508023725 | 60 | 180 | 2.6 | 5.2 | 0.00 | 0.00 | 0.00 | 87 | 1014.1 |
| 20260508023223 | 60 | 185 | 2.6 | 6.1 | 0.00 | 0.00 | 0.00 | 86 | 1014.1 |
| 20260508022719 | 60 | 168 | 3.5 | 6.1 | 0.00 | 0.00 | 0.00 | 86 | 1014.1 |
| 20260508022216 | 61 | 172 | 3.5 | 5.2 | 0.00 | 0.00 | 0.00 | 86 | 1013.9 |
| 20260508021712 | 61 | 188 | 3.5 | 5.2 | 0.00 | 0.00 | 0.00 | 85 | 1014.0 |
| 20260508021208 | 61 | 167 | 4.3 | 6.1 | 0.00 | 0.00 | 0.00 | 85 | 1014.0 |
| 20260508020706 | 61 | 181 | 2.6 | 5.2 | 0.00 | 0.00 | 0.00 | 84 | 1014.0 |
| 20260508020203 | 61 | 174 | 3.5 | 6.1 | 0.00 | 0.00 | 0.00 | 84 | 1014.0 |
| 20260508015700 | 62 | 185 | 4.3 | 6.1 | 0.00 | 0.00 | 0.00 | 83 | 1013.8 |
| 20260508015157 | 62 | 195 | 3.5 | 5.2 | 0.00 | 0.00 | 0.00 | 83 | 1014.0 |
| 20260508014653 | 62 | 144 | 4.3 | 6.1 | 0.00 | 0.00 | 0.00 | 83 | 1013.8 |
| 20260508014149 | 62 | 205 | 3.5 | 6.1 | 0.00 | 0.00 | 0.00 | 82 | 1013.8 |
| 20260508013646 | 62 | 176 | 4.3 | 5.2 | 0.00 | 0.00 | 0.00 | 82 | 1013.9 |
| 20260508013142 | 63 | 182 | 6.1 | 7.0 | 0.00 | 0.00 | 0.00 | 81 | 1013.8 |
| 20260508012640 | 63 | 175 | 5.2 | 7.0 | 0.00 | 0.00 | 0.00 | 80 | 1013.9 |
| 20260508012137 | 63 | 196 | 3.5 | 5.2 | 0.00 | 0.00 | 0.00 | 80 | 1013.8 |
| 20260508011636 | 64 | 147 | 3.5 | 6.1 | 0.00 | 0.00 | 0.00 | 79 | 1013.9 |
| 20260508011133 | 64 | 153 | 6.1 | 7.8 | 0.00 | 0.00 | 0.00 | 79 | 1013.8 |
| 20260508010629 | 64 | 155 | 2.6 | 7.8 | 0.00 | 0.00 | 0.00 | 79 | 1013.9 |
| 20260508010127 | 64 | 166 | 5.2 | 6.1 | 0.00 | 0.00 | 0.00 | 79 | 1013.8 |
| 20260508005624 | 64 | 185 | 5.2 | 8.7 | 0.00 | 0.00 | 0.00 | 77 | 1013.8 |
| 20260508005120 | 65 | 176 | 4.3 | 6.1 | 0.00 | 0.00 | 0.00 | 76 | 1013.9 |
| 20260508004616 | 65 | 176 | 4.3 | 7.0 | 0.00 | 0.00 | 0.00 | 76 | 1013.9 |
| 20260508004113 | 65 | 193 | 3.5 | 7.0 | 0.00 | 0.00 | 0.00 | 75 | 1013.7 |
| 20260508003609 | 66 | 197 | 3.5 | 3.5 | 0.00 | 0.00 | 0.00 | 73 | 1013.7 |
| 20260508003107 | 66 | 181 | 0.9 | 3.5 | 0.00 | 0.00 | 0.00 | 73 | 1013.8 |
| 20260508002603 | 67 | 173 | 2.6 | 6.1 | 0.00 | 0.00 | 0.00 | 71 | 1013.6 |
| 20260508002101 | 68 | 183 | 3.5 | 3.5 | 0.00 | 0.00 | 0.00 | 70 | 1013.8 |
| 20260508001556 | 68 | 352 | 0.0 | 1.7 | 0.00 | 0.00 | 0.00 | 69 | 1013.5 |
| 20260508001053 | 69 | 169 | 0.9 | 1.7 | 0.00 | 0.00 | 0.00 | 69 | 1013.6 |
| 20260508000548 | 69 | 323 | 0.9 | 1.7 | 0.00 | 0.00 | 0.00 | 69 | 1013.6 |
| 20260508000046 | 68 | 32 | 0.9 | 1.7 | 0.00 | 0.00 | 0.00 | 70 | 1013.7 |
| 20260507235543 | 69 | 189 | 1.7 | 2.6 | 0.00 | 0.00 | 0.00 | 69 | 1014.0 |
| 20260507235040 | 69 | 278 | 0.9 | 3.5 | 0.00 | 0.00 | 0.00 | 70 | 1014.0 |
| 20260507234536 | 68 | 82 | 0.9 | 5.2 | 0.00 | 0.00 | 0.00 | 70 | 1013.6 |
| 20260507234033 | 67 | 194 | 1.7 | 5.2 | 0.00 | 0.00 | 0.00 | 71 | 1013.7 |
| 20260507233530 | 68 | 175 | 4.3 | 5.2 | 0.00 | 0.00 | 0.00 | 70 | 1013.8 |
| 20260507233028 | 68 | 172 | 4.3 | 6.1 | 0.00 | 0.00 | 0.00 | 69 | 1013.6 |
| 20260507232524 | 69 | 170 | 1.7 | 3.5 | 0.00 | 0.00 | 0.00 | 69 | 1013.7 |
| 20260507232022 | 69 | 81 | 0.9 | 3.5 | 0.00 | 0.00 | 0.00 | 69 | 1013.8 |
| 20260507231518 | 69 | 283 | 1.7 | 5.2 | 0.00 | 0.00 | 0.00 | 69 | 1013.7 |
| 20260507231015 | 69 | 76 | 0.9 | 2.6 | 0.00 | 0.00 | 0.00 | 70 | 1013.9 |
| 20260507230512 | 68 | 213 | 1.7 | 6.1 | 0.00 | 0.00 | 0.00 | 70 | 1013.8 |
| 20260507230008 | 69 | 196 | 3.5 | 8.7 | 0.00 | 0.00 | 0.00 | 68 | 1013.8 |
| 20260507225503 | 72 | 172 | 4.3 | 5.2 | 0.00 | 0.00 | 0.00 | 64 | 1013.7 |
| 20260507225000 | 71 | 352 | 0.0 | 3.5 | 0.00 | 0.00 | 0.00 | 66 | 1014.0 |
| 20260507224456 | 70 | 185 | 2.6 | 3.5 | 0.00 | 0.00 | 0.00 | 66 | 1014.0 |
| 20260507223953 | 71 | 347 | 1.7 | 2.6 | 0.00 | 0.00 | 0.00 | 67 | 1014.0 |
| 20260507223449 | 70 | 184 | 3.5 | 6.1 | 0.00 | 0.00 | 0.00 | 67 | 1013.8 |
| 20260507222946 | 70 | 271 | 1.7 | 5.2 | 0.00 | 0.00 | 0.00 | 67 | 1013.8 |
| 20260507222443 | 72 | 352 | 0.9 | 8.7 | 0.00 | 0.00 | 0.00 | 65 | 1014.1 |
| 20260507221939 | 72 | 47 | 0.9 | 3.5 | 0.00 | 0.00 | 0.00 | 65 | 1013.9 |
| 20260507221436 | 73 | 307 | 1.7 | 5.2 | 0.00 | 0.00 | 0.00 | 62 | 1014.0 |
| 20260507220932 | 75 | 324 | 0.9 | 1.7 | 0.00 | 0.00 | 0.00 | 60 | 1014.2 |
| 20260507220430 | 75 | 303 | 0.0 | 1.7 | 0.00 | 0.00 | 0.00 | 60 | 1014.3 |
| 20260507215927 | 75 | 12 | 0.0 | 2.6 | 0.00 | 0.00 | 0.00 | 61 | 1014.1 |
| 20260507215423 | 74 | 341 | 0.9 | 1.7 | 0.00 | 0.00 | 0.00 | 62 | 1014.2 |
| 20260507214920 | 73 | 191 | 0.9 | 2.6 | 0.00 | 0.00 | 0.00 | 62 | 1014.3 |
| 20260507214418 | 74 | 148 | 1.7 | 3.5 | 0.00 | 0.00 | 0.00 | 61 | 1014.4 |
| 20260507213913 | 74 | 280 | 0.9 | 2.6 | 0.00 | 0.00 | 0.00 | 62 | 1014.4 |
| 20260507213410 | 73 | 111 | 0.0 | 2.6 | 0.00 | 0.00 | 0.00 | 62 | 1014.6 |
| 20260507212907 | 73 | 206 | 1.7 | 2.6 | 0.00 | 0.00 | 0.00 | 62 | 1014.7 |
| 20260507212403 | 73 | 186 | 3.5 | 5.2 | 0.00 | 0.00 | 0.00 | 61 | 1014.6 |
| 20260507211900 | 73 | 204 | 0.9 | 3.5 | 0.00 | 0.00 | 0.00 | 61 | 1014.5 |
| 20260507211356 | 75 | 189 | 1.7 | 2.6 | 0.00 | 0.00 | 0.00 | 60 | 1014.6 |
| 20260507210853 | 74 | 321 | 0.9 | 2.6 | 0.00 | 0.00 | 0.00 | 60 | 1014.5 |
| 20260507210350 | 75 | 13 | 1.7 | 3.5 | 0.00 | 0.00 | 0.00 | 59 | 1014.6 |
| 20260507205847 | 74 | 356 | 1.7 | 2.6 | 0.00 | 0.00 | 0.00 | 61 | 1014.7 |
| 20260507205344 | 75 | 260 | 0.9 | 3.5 | 0.00 | 0.00 | 0.00 | 60 | 1014.7 |
| 20260507204840 | 76 | 341 | 1.7 | 3.5 | 0.00 | 0.00 | 0.00 | 58 | 1014.7 |
| 20260507204337 | 76 | 236 | 1.7 | 2.6 | 0.00 | 0.00 | 0.00 | 58 | 1014.9 |
| 20260507203835 | 75 | 281 | 0.9 | 2.6 | 0.00 | 0.00 | 0.00 | 60 | 1014.7 |
| 20260507203333 | 75 | 75 | 0.9 | 2.6 | 0.00 | 0.00 | 0.00 | 60 | 1014.6 |
| 20260507202828 | 75 | 300 | 0.9 | 3.5 | 0.00 | 0.00 | 0.00 | 59 | 1014.8 |
| 20260507202325 | 75 | 347 | 0.9 | 2.6 | 0.00 | 0.00 | 0.00 | 58 | 1014.7 |
| 20260507201820 | 75 | 200 | 1.7 | 2.6 | 0.00 | 0.00 | 0.00 | 59 | 1014.6 |
| 20260507201316 | 75 | 154 | 1.7 | 3.5 | 0.00 | 0.00 | 0.00 | 60 | 1014.7 |
| 20260507200813 | 75 | 232 | 1.7 | 6.1 | 0.00 | 0.00 | 0.00 | 59 | 1014.8 |
| 20260507200309 | 75 | 3 | 1.7 | 2.6 | 0.00 | 0.00 | 0.00 | 59 | 1014.8 |
| 20260507195805 | 75 | 76 | 1.7 | 5.2 | 0.00 | 0.00 | 0.00 | 59 | 1014.9 |
| 20260507195305 | 74 | 159 | 1.7 | 3.5 | 0.00 | 0.00 | 0.00 | 60 | 1014.7 |
| 20260507194800 | 75 | 171 | 2.6 | 7.0 | 0.00 | 0.00 | 0.00 | 60 | 1014.9 |
| 20260507194256 | 76 | 182 | 3.5 | 5.2 | 0.00 | 0.00 | 0.00 | 57 | 1015.0 |
| 20260507193752 | 75 | 357 | 1.7 | 3.5 | 0.00 | 0.00 | 0.00 | 58 | 1015.0 |
| 20260507193249 | 75 | 0 | 0.9 | 2.6 | 0.00 | 0.00 | 0.00 | 60 | 1014.9 |
| 20260507192745 | 75 | 343 | 0.9 | 6.1 | 0.00 | 0.00 | 0.00 | 59 | 1014.9 |
| 20260507192242 | 77 | 263 | 2.6 | 5.2 | 0.00 | 0.00 | 0.00 | 57 | 1015.1 |
| 20260507191738 | 76 | 289 | 0.9 | 2.6 | 0.00 | 0.00 | 0.00 | 57 | 1015.3 |
| 20260507191235 | 75 | 50 | 0.9 | 1.7 | 0.00 | 0.00 | 0.00 | 60 | 1015.3 |
| 20260507190732 | 75 | 202 | 0.9 | 1.7 | 0.00 | 0.00 | 0.00 | 60 | 1015.3 |
| 20260507190231 | 75 | 128 | 1.7 | 5.2 | 0.00 | 0.00 | 0.00 | 59 | 1015.3 |
| 20260507185729 | 75 | 322 | 0.9 | 2.6 | 0.00 | 0.00 | 0.00 | 57 | 1015.5 |
| 20260507185225 | 76 | 129 | 1.7 | 1.7 | 0.00 | 0.00 | 0.00 | 58 | 1015.4 |
| 20260507184723 | 75 | 318 | 1.7 | 3.5 | 0.00 | 0.00 | 0.00 | 59 | 1015.5 |
| 20260507184221 | 74 | 47 | 0.9 | 1.7 | 0.00 | 0.00 | 0.00 | 60 | 1015.5 |
| 20260507183717 | 74 | 208 | 0.9 | 2.6 | 0.00 | 0.00 | 0.00 | 60 | 1015.5 |
| 20260507183214 | 75 | 169 | 2.6 | 5.2 | 0.00 | 0.00 | 0.00 | 59 | 1015.6 |
| 20260507182711 | 75 | 124 | 0.9 | 2.6 | 0.00 | 0.00 | 0.00 | 58 | 1015.6 |
| 20260507182206 | 75 | 334 | 0.9 | 2.6 | 0.00 | 0.00 | 0.00 | 59 | 1015.7 |
| 20260507181703 | 75 | 300 | 1.7 | 1.7 | 0.00 | 0.00 | 0.00 | 59 | 1015.7 |
| 20260507181200 | 74 | 19 | 0.0 | 3.5 | 0.00 | 0.00 | 0.00 | 61 | 1015.6 |
| 20260507180656 | 73 | 65 | 1.7 | 6.1 | 0.00 | 0.00 | 0.00 | 62 | 1015.6 |
| 20260507180153 | 73 | 191 | 1.7 | 5.2 | 0.00 | 0.00 | 0.00 | 61 | 1015.7 |
| 20260507175649 | 73 | 73 | 1.7 | 2.6 | 0.00 | 0.00 | 0.00 | 63 | 1015.7 |
| 20260507175146 | 73 | 185 | 3.5 | 3.5 | 0.00 | 0.00 | 0.00 | 63 | 1015.7 |
| 20260507174643 | 72 | 99 | 2.6 | 3.5 | 0.00 | 0.00 | 0.00 | 63 | 1015.9 |
| 20260507174142 | 72 | 144 | 2.6 | 3.5 | 0.00 | 0.00 | 0.00 | 63 | 1015.7 |
| 20260507173638 | 72 | 181 | 1.7 | 5.2 | 0.00 | 0.00 | 0.00 | 64 | 1015.9 |
| 20260507173136 | 71 | 198 | 1.7 | 2.6 | 0.00 | 0.00 | 0.00 | 67 | 1016.0 |
| 20260507172632 | 71 | 129 | 0.9 | 5.2 | 0.00 | 0.00 | 0.00 | 66 | 1015.7 |
| 20260507172129 | 70 | 166 | 2.6 | 2.6 | 0.00 | 0.00 | 0.00 | 68 | 1015.9 |
| 20260507171624 | 68 | 161 | 1.7 | 7.0 | 0.00 | 0.00 | 0.00 | 71 | 1015.8 |
| 20260507171121 | 69 | 179 | 5.2 | 7.0 | 0.00 | 0.00 | 0.00 | 67 | 1015.9 |
| 20260507170618 | 68 | 187 | 4.3 | 5.2 | 0.00 | 0.00 | 0.00 | 69 | 1015.8 |
| 20260507170115 | 68 | 116 | 4.3 | 6.1 | 0.00 | 0.00 | 0.00 | 68 | 1015.9 |
| 20260507165611 | 68 | 127 | 3.5 | 3.5 | 0.00 | 0.00 | 0.00 | 67 | 1015.8 |
| 20260507165107 | 67 | 171 | 5.2 | 7.0 | 0.00 | 0.00 | 0.00 | 69 | 1015.8 |
| 20260507164603 | 68 | 94 | 1.7 | 2.6 | 0.00 | 0.00 | 0.00 | 66 | 1016.1 |
| 20260507164100 | 68 | 159 | 3.5 | 5.2 | 0.00 | 0.00 | 0.00 | 66 | 1015.9 |
| 20260507163558 | 68 | 152 | 2.6 | 3.5 | 0.00 | 0.00 | 0.00 | 66 | 1016.0 |
| 20260507163056 | 68 | 63 | 1.7 | 5.2 | 0.00 | 0.00 | 0.00 | 65 | 1016.0 |
| 20260507162555 | 67 | 175 | 3.5 | 3.5 | 0.00 | 0.00 | 0.00 | 67 | 1016.0 |
| 20260507162053 | 67 | 213 | 1.7 | 5.2 | 0.00 | 0.00 | 0.00 | 67 | 1016.1 |
| 20260507161549 | 67 | 142 | 2.6 | 3.5 | 0.00 | 0.00 | 0.00 | 68 | 1016.1 |
| 20260507161046 | 66 | 149 | 1.7 | 2.6 | 0.00 | 0.00 | 0.00 | 71 | 1016.0 |
| 20260507160542 | 65 | 175 | 2.6 | 5.2 | 0.00 | 0.00 | 0.00 | 70 | 1016.0 |
| 20260507160038 | 65 | 139 | 1.7 | 3.5 | 0.00 | 0.00 | 0.00 | 71 | 1016.1 |
| 20260507155534 | 65 | 133 | 2.6 | 5.2 | 0.00 | 0.00 | 0.00 | 70 | 1016.0 |
| 20260507155031 | 65 | 173 | 1.7 | 5.2 | 0.00 | 0.00 | 0.00 | 70 | 1016.1 |
| 20260507154528 | 64 | 79 | 1.7 | 3.5 | 0.00 | 0.00 | 0.00 | 73 | 1016.2 |
| 20260507154025 | 64 | 106 | 3.5 | 5.2 | 0.00 | 0.00 | 0.00 | 73 | 1016.3 |
| 20260507153522 | 65 | 128 | 1.7 | 3.5 | 0.00 | 0.00 | 0.00 | 71 | 1016.2 |
| 20260507153018 | 66 | 16 | 0.0 | 1.7 | 0.00 | 0.00 | 0.00 | 69 | 1016.3 |
| 20260507152514 | 66 | 10 | 0.9 | 0.9 | 0.00 | 0.00 | 0.00 | 71 | 1016.3 |
| 20260507152011 | 65 | 3 | 0.9 | 0.9 | 0.00 | 0.00 | 0.00 | 73 | 1016.4 |
| 20260507151507 | 64 | 16 | 0.0 | 1.7 | 0.00 | 0.00 | 0.00 | 75 | 1016.3 |
| 20260507151004 | 64 | 64 | 0.9 | 1.7 | 0.00 | 0.00 | 0.00 | 72 | 1016.3 |
| 20260507150501 | 65 | 94 | 1.7 | 2.6 | 0.00 | 0.00 | 0.00 | 69 | 1016.1 |
| 20260507145957 | 64 | 35 | 0.0 | 0.9 | 0.00 | 0.00 | 0.00 | 74 | 1016.1 |
| 20260507145452 | 63 | 330 | 0.0 | 0.9 | 0.00 | 0.00 | 0.00 | 77 | 1016.4 |
| 20260507144950 | 63 | 87 | 0.9 | 1.7 | 0.00 | 0.00 | 0.00 | 77 | 1016.2 |
| 20260507144446 | 63 | 324 | 0.9 | 1.7 | 0.00 | 0.00 | 0.00 | 78 | 1016.2 |
| 20260507143943 | 62 | 37 | 0.0 | 1.7 | 0.00 | 0.00 | 0.00 | 79 | 1016.2 |
| 20260507143441 | 61 | 35 | 0.0 | 0.9 | 0.00 | 0.00 | 0.00 | 79 | 1016.0 |
| 20260507142937 | 60 | 36 | 0.0 | 1.7 | 0.00 | 0.00 | 0.00 | 79 | 1016.0 |
| 20260507142433 | 60 | 83 | 1.7 | 1.7 | 0.00 | 0.00 | 0.00 | 78 | 1016.2 |
| 20260507141931 | 60 | 74 | 0.9 | 1.7 | 0.00 | 0.00 | 0.00 | 79 | 1015.9 |
| 20260507141426 | 59 | 53 | 0.9 | 0.9 | 0.00 | 0.00 | 0.00 | 80 | 1015.8 |
| 20260507140923 | 59 | 98 | 1.7 | 1.7 | 0.00 | 0.00 | 0.00 | 80 | 1015.8 |
| 20260507140420 | 59 | 58 | 0.9 | 1.7 | 0.00 | 0.00 | 0.00 | 80 | 1015.9 |
| 20260507135918 | 59 | 58 | 0.9 | 0.9 | 0.00 | 0.00 | 0.00 | 81 | 1015.6 |
| 20260507135414 | 60 | 50 | 0.0 | 0.9 | 0.00 | 0.00 | 0.00 | 80 | 1015.7 |
| 20260507134912 | 60 | 18 | 0.0 | 0.0 | 0.00 | 0.00 | 0.00 | 83 | 1015.7 |
| 20260507134408 | 59 | 35 | 0.0 | 0.0 | 0.00 | 0.00 | 0.00 | 84 | 1015.6 |
| 20260507133904 | 58 | 41 | 0.0 | 0.0 | 0.00 | 0.00 | 0.00 | 86 | 1015.4 |
| 20260507133400 | 57 | 33 | 0.0 | 0.0 | 0.00 | 0.00 | 0.00 | 87 | 1015.3 |
| 20260507132859 | 56 | 33 | 0.0 | 0.0 | 0.00 | 0.00 | 0.00 | 88 | 1015.5 |
| 20260507132355 | 55 | 41 | 0.0 | 0.0 | 0.00 | 0.00 | 0.00 | 89 | 1015.4 |
| 20260507131852 | 55 | 45 | 0.0 | 0.9 | 0.00 | 0.00 | 0.00 | 89 | 1015.4 |
| 20260507131348 | 54 | 63 | 0.9 | 0.9 | 0.00 | 0.00 | 0.00 | 89 | 1015.4 |
| 20260507130845 | 54 | 57 | 0.9 | 0.9 | 0.00 | 0.00 | 0.00 | 88 | 1015.3 |
| 20260507130342 | 54 | 44 | 0.0 | 0.0 | 0.00 | 0.00 | 0.00 | 88 | 1015.2 |
| 20260507125842 | 54 | 44 | 0.0 | 0.0 | 0.00 | 0.00 | 0.00 | 88 | 1015.2 |
| 20260507125338 | 55 | 43 | 0.0 | 0.0 | 0.00 | 0.00 | 0.00 | 88 | 1015.2 |
| 20260507124836 | 55 | 45 | 0.0 | 0.9 | 0.00 | 0.00 | 0.00 | 89 | 1015.3 |
| 20260507124332 | 55 | 47 | 0.0 | 0.9 | 0.00 | 0.00 | 0.00 | 89 | 1015.1 |
| 20260507123831 | 54 | 51 | 0.9 | 0.9 | 0.00 | 0.00 | 0.00 | 89 | 1015.1 |
| 20260507123328 | 54 | 45 | 0.0 | 0.9 | 0.00 | 0.00 | 0.00 | 89 | 1015.2 |
| 20260507122824 | 54 | 41 | 0.0 | 0.9 | 0.00 | 0.00 | 0.00 | 89 | 1015.2 |
| 20260507122319 | 54 | 41 | 0.0 | 0.0 | 0.00 | 0.00 | 0.00 | 89 | 1015.2 |
| 20260507121815 | 54 | 41 | 0.0 | 0.0 | 0.00 | 0.00 | 0.00 | 89 | 1015.2 |
| 20260507121311 | 55 | 41 | 0.0 | 0.0 | 0.00 | 0.00 | 0.00 | 89 | 1015.2 |
| 20260507120808 | 55 | 41 | 0.0 | 0.0 | 0.00 | 0.00 | 0.00 | 89 | 1015.3 |
| 20260507120304 | 55 | 41 | 0.0 | 0.0 | 0.00 | 0.00 | 0.00 | 89 | 1015.3 |
| 20260507115801 | 55 | 15 | 0.0 | 0.9 | 0.00 | 0.00 | 0.00 | 89 | 1015.2 |
| 20260507115256 | 55 | 20 | 0.0 | 0.0 | 0.00 | 0.00 | 0.00 | 89 | 1015.1 |
| 20260507114752 | 55 | 6 | 0.9 | 0.9 | 0.00 | 0.00 | 0.00 | 89 | 1015.3 |
| 20260507114250 | 55 | 17 | 0.0 | 0.0 | 0.00 | 0.00 | 0.00 | 89 | 1015.1 |
| 20260507113747 | 55 | 13 | 0.0 | 0.0 | 0.00 | 0.00 | 0.00 | 89 | 1015.3 |
| 20260507113244 | 55 | 12 | 0.9 | 0.9 | 0.00 | 0.00 | 0.00 | 89 | 1015.3 |
| 20260507112742 | 55 | 15 | 0.0 | 0.0 | 0.00 | 0.00 | 0.00 | 89 | 1015.3 |
| 20260507112238 | 55 | 15 | 0.0 | 0.0 | 0.00 | 0.00 | 0.00 | 89 | 1015.4 |
| 20260507111736 | 55 | 14 | 0.0 | 0.0 | 0.00 | 0.00 | 0.00 | 89 | 1015.5 |
| 20260507111232 | 55 | 7 | 0.0 | 0.0 | 0.00 | 0.00 | 0.00 | 88 | 1015.5 |
| 20260507110728 | 55 | 334 | 0.9 | 0.9 | 0.00 | 0.00 | 0.00 | 88 | 1015.7 |
| 20260507110225 | 56 | 24 | 0.0 | 0.0 | 0.00 | 0.00 | 0.00 | 87 | 1015.7 |
| 20260507105722 | 56 | 32 | 0.0 | 0.0 | 0.00 | 0.00 | 0.00 | 87 | 1015.6 |
| 20260507105218 | 55 | 54 | 0.9 | 0.9 | 0.00 | 0.00 | 0.00 | 87 | 1015.6 |
| 20260507104716 | 55 | 54 | 0.9 | 0.9 | 0.00 | 0.00 | 0.00 | 87 | 1015.7 |
| 20260507104212 | 56 | 38 | 0.0 | 0.0 | 0.00 | 0.00 | 0.00 | 87 | 1015.6 |
| 20260507103708 | 56 | 39 | 0.0 | 0.0 | 0.00 | 0.00 | 0.00 | 87 | 1015.5 |
| 20260507103204 | 56 | 42 | 0.0 | 1.7 | 0.00 | 0.00 | 0.00 | 86 | 1015.6 |
| 20260507102701 | 55 | 42 | 0.0 | 0.9 | 0.00 | 0.00 | 0.00 | 87 | 1015.8 |
| 20260507102158 | 55 | 24 | 0.0 | 0.0 | 0.00 | 0.00 | 0.00 | 86 | 1015.5 |
| 20260507101653 | 55 | 13 | 0.0 | 0.0 | 0.00 | 0.00 | 0.00 | 86 | 1015.7 |
| 20260507101149 | 55 | 0 | 0.0 | 0.0 | 0.00 | 0.00 | 0.00 | 86 | 1015.6 |
| 20260507100647 | 56 | 30 | 0.0 | 0.0 | 0.00 | 0.00 | 0.00 | 85 | 1015.6 |
| 20260507100145 | 56 | 31 | 0.0 | 0.9 | 0.00 | 0.00 | 0.00 | 85 | 1015.5 |
| 20260507095643 | 56 | 25 | 0.0 | 0.0 | 0.00 | 0.00 | 0.00 | 85 | 1015.8 |
| 20260507095139 | 56 | 28 | 0.0 | 0.0 | 0.00 | 0.00 | 0.00 | 85 | 1015.7 |
| 20260507094635 | 56 | 32 | 0.0 | 0.0 | 0.00 | 0.00 | 0.00 | 85 | 1015.7 |
| 20260507094132 | 56 | 26 | 0.0 | 0.9 | 0.00 | 0.00 | 0.00 | 85 | 1015.8 |
| 20260507093629 | 56 | 15 | 0.9 | 0.9 | 0.00 | 0.00 | 0.00 | 85 | 1015.7 |
| 20260507093128 | 56 | 21 | 0.0 | 0.0 | 0.00 | 0.00 | 0.00 | 85 | 1015.8 |
| 20260507092624 | 56 | 21 | 0.0 | 0.9 | 0.00 | 0.00 | 0.00 | 85 | 1015.9 |
| 20260507092121 | 56 | 36 | 0.0 | 0.0 | 0.00 | 0.00 | 0.00 | 84 | 1015.9 |
| 20260507091618 | 56 | 31 | 0.0 | 0.0 | 0.00 | 0.00 | 0.00 | 85 | 1016.2 |
| 20260507091114 | 56 | 30 | 0.0 | 0.9 | 0.00 | 0.00 | 0.00 | 85 | 1016.2 |
| 20260507090610 | 56 | 21 | 0.0 | 0.9 | 0.00 | 0.00 | 0.00 | 85 | 1016.2 |
| 20260507090107 | 56 | 4 | 0.0 | 0.9 | 0.00 | 0.00 | 0.00 | 85 | 1016.3 |
| 20260507085604 | 56 | 18 | 0.0 | 0.0 | 0.00 | 0.00 | 0.00 | 85 | 1016.3 |
| 20260507085100 | 56 | 43 | 0.0 | 0.9 | 0.00 | 0.00 | 0.00 | 85 | 1016.4 |
| 20260507084557 | 56 | 26 | 0.0 | 0.0 | 0.00 | 0.00 | 0.00 | 85 | 1016.4 |
| 20260507084054 | 56 | 42 | 0.0 | 0.9 | 0.00 | 0.00 | 0.00 | 85 | 1016.5 |
| 20260507083550 | 56 | 3 | 0.0 | 0.0 | 0.00 | 0.00 | 0.00 | 85 | 1016.6 |
| 20260507083048 | 56 | 47 | 0.0 | 0.9 | 0.00 | 0.00 | 0.00 | 84 | 1016.5 |
| 20260507082544 | 57 | 39 | 0.0 | 0.9 | 0.00 | 0.00 | 0.00 | 85 | 1016.4 |
| 20260507082041 | 57 | 24 | 0.0 | 0.0 | 0.00 | 0.00 | 0.00 | 84 | 1016.5 |
| 20260507081536 | 57 | 32 | 0.0 | 0.0 | 0.00 | 0.00 | 0.00 | 84 | 1016.8 |
| 20260507081034 | 57 | 350 | 0.9 | 0.9 | 0.00 | 0.00 | 0.00 | 84 | 1016.6 |
| 20260507080529 | 57 | 6 | 0.0 | 0.0 | 0.00 | 0.00 | 0.00 | 83 | 1016.8 |
| 20260507080026 | 57 | 359 | 0.0 | 0.9 | 0.00 | 0.00 | 0.00 | 83 | 1016.7 |
| 20260507075521 | 58 | 3 | 0.0 | 0.0 | 0.00 | 0.00 | 0.00 | 83 | 1016.7 |
| 20260507075018 | 58 | 345 | 0.9 | 0.9 | 0.00 | 0.00 | 0.00 | 83 | 1016.4 |
| 20260507074514 | 58 | 5 | 0.0 | 0.0 | 0.00 | 0.00 | 0.00 | 82 | 1016.4 |
| 20260507074014 | 58 | 350 | 0.9 | 0.9 | 0.00 | 0.00 | 0.00 | 83 | 1016.7 |
| 20260507073509 | 58 | 0 | 0.0 | 0.9 | 0.00 | 0.00 | 0.00 | 82 | 1016.4 |
| 20260507073006 | 58 | 0 | 0.0 | 0.0 | 0.00 | 0.00 | 0.00 | 82 | 1016.6 |
| 20260507072503 | 58 | 339 | 0.9 | 0.9 | 0.00 | 0.00 | 0.00 | 82 | 1016.6 |
| 20260507072000 | 58 | 1 | 0.0 | 0.0 | 0.00 | 0.00 | 0.00 | 81 | 1016.5 |
| 20260507071457 | 58 | 350 | 0.9 | 0.9 | 0.00 | 0.00 | 0.00 | 81 | 1016.6 |
| 20260507070954 | 58 | 345 | 0.9 | 0.9 | 0.00 | 0.00 | 0.00 | 81 | 1016.6 |
| 20260507070451 | 58 | 341 | 0.9 | 1.7 | 0.00 | 0.00 | 0.00 | 81 | 1016.6 |
| 20260507065948 | 58 | 344 | 0.9 | 1.7 | 0.00 | 0.00 | 0.00 | 80 | 1016.6 |
| 20260507065444 | 59 | 315 | 0.9 | 1.7 | 0.00 | 0.00 | 0.00 | 80 | 1016.9 |
| 20260507064941 | 59 | 315 | 1.7 | 1.7 | 0.00 | 0.00 | 0.00 | 80 | 1016.7 |
| 20260507064440 | 59 | 328 | 1.7 | 1.7 | 0.00 | 0.00 | 0.00 | 80 | 1016.7 |
| 20260507063937 | 59 | 357 | 0.0 | 1.7 | 0.00 | 0.00 | 0.00 | 80 | 1016.7 |
| 20260507063434 | 59 | 312 | 0.9 | 0.9 | 0.00 | 0.00 | 0.00 | 79 | 1016.7 |
| 20260507062931 | 59 | 1 | 0.0 | 0.9 | 0.00 | 0.00 | 0.00 | 80 | 1017.0 |
| 20260507062428 | 59 | 351 | 0.0 | 1.7 | 0.00 | 0.00 | 0.00 | 79 | 1016.9 |
| 20260507061926 | 59 | 359 | 0.0 | 0.9 | 0.00 | 0.00 | 0.00 | 79 | 1016.7 |
| 20260507061424 | 59 | 334 | 0.9 | 0.9 | 0.00 | 0.00 | 0.00 | 78 | 1016.9 |
| 20260507060922 | 59 | 2 | 0.0 | 0.0 | 0.00 | 0.00 | 0.00 | 78 | 1016.8 |
| 20260507060418 | 59 | 349 | 0.9 | 0.9 | 0.00 | 0.00 | 0.00 | 78 | 1016.9 |
| 20260507055915 | 59 | 335 | 0.9 | 1.7 | 0.00 | 0.00 | 0.00 | 78 | 1017.0 |
| 20260507055410 | 59 | 355 | 0.0 | 0.9 | 0.00 | 0.00 | 0.00 | 77 | 1016.7 |
| 20260507054907 | 60 | 344 | 0.9 | 1.7 | 0.00 | 0.00 | 0.00 | 77 | 1016.7 |
| 20260507054403 | 60 | 355 | 0.0 | 0.9 | 0.00 | 0.00 | 0.00 | 76 | 1016.8 |
| 20260507053901 | 60 | 327 | 0.9 | 1.7 | 0.00 | 0.00 | 0.00 | 76 | 1016.7 |
| 20260507053358 | 60 | 306 | 1.7 | 1.7 | 0.00 | 0.00 | 0.00 | 76 | 1016.9 |
| 20260507052857 | 60 | 340 | 0.9 | 1.7 | 0.00 | 0.00 | 0.00 | 77 | 1016.9 |
| 20260507052354 | 60 | 356 | 0.9 | 1.7 | 0.00 | 0.00 | 0.00 | 77 | 1016.6 |
| 20260507051851 | 60 | 350 | 0.9 | 1.7 | 0.00 | 0.00 | 0.00 | 77 | 1016.7 |
| 20260507051348 | 60 | 346 | 0.9 | 0.9 | 0.00 | 0.00 | 0.00 | 77 | 1016.8 |
| 20260507050845 | 60 | 337 | 0.9 | 0.9 | 0.00 | 0.00 | 0.00 | 77 | 1016.7 |
| 20260507050342 | 60 | 340 | 0.9 | 1.7 | 0.00 | 0.00 | 0.00 | 77 | 1016.6 |
| 20260507045839 | 60 | 348 | 0.9 | 0.9 | 0.00 | 0.00 | 0.00 | 77 | 1016.7 |
| 20260507045335 | 60 | 341 | 1.7 | 1.7 | 0.00 | 0.00 | 0.00 | 77 | 1016.8 |
| 20260507044832 | 60 | 348 | 0.0 | 0.9 | 0.00 | 0.00 | 0.00 | 77 | 1016.7 |